STARLINK-35780

Last updated on Fri Dec 19 2025 00:02:09 GMT+0000 (Coordinated Universal Time)

1 66974U 25288R 25352.58336806 -.01406776 00000+0 -62488-2 0 9995 2 66974 43.0014 131.3524 0001517 275.4998 317.2207 15.86268064 2777
UTC large
Height (km)
Speed (km/s)
/
Latitude / Longitude
Inclination (degrees)
Orbital Period (minutes)
Azimuth
Elevation
Range (km)
Doppler Factor

Next 0 passes for location: London (51.5072 / 0.1276)

Sorry there are no passes over London.